Year,Month,Day,Hour,Minute,Value (Times are PST for temperature in C)
2019,06,16,00,00,17.60
2019,06,16,00,01,17.60
2019,06,16,00,02,17.50
2019,06,16,00,03,17.50
2019,06,16,00,04,17.50
2019,06,16,00,05,17.50
2019,06,16,00,06,17.50
2019,06,16,00,07,17.50
2019,06,16,00,08,17.40
2019,06,16,00,09,17.40
2019,06,16,00,10,17.40
2019,06,16,00,11,17.40
2019,06,16,00,12,17.40
2019,06,16,00,13,17.40
2019,06,16,00,14,17.30
2019,06,16,00,15,17.30
2019,06,16,00,16,17.30
2019,06,16,00,17,17.30
2019,06,16,00,18,17.30
2019,06,16,00,19,17.20
2019,06,16,00,20,17.20
2019,06,16,00,21,17.20
2019,06,16,00,22,17.20
2019,06,16,00,23,17.20
2019,06,16,00,24,17.10
2019,06,16,00,25,17.10
2019,06,16,00,26,17.10
2019,06,16,00,27,17.10
2019,06,16,00,28,17.10
2019,06,16,00,29,17.00
2019,06,16,00,30,17.00
2019,06,16,00,31,17.00
2019,06,16,00,32,17.00
2019,06,16,00,33,16.90
2019,06,16,00,34,16.90
2019,06,16,00,35,16.80
2019,06,16,00,36,16.80
2019,06,16,00,37,16.80
2019,06,16,00,38,16.80
2019,06,16,00,39,16.80
2019,06,16,00,40,16.80
2019,06,16,00,41,16.70
2019,06,16,00,42,16.70
2019,06,16,00,43,16.70
2019,06,16,00,44,16.70
2019,06,16,00,45,16.70
2019,06,16,00,46,16.70
2019,06,16,00,47,16.60
2019,06,16,00,48,16.60
2019,06,16,00,49,16.60
2019,06,16,00,50,16.50
2019,06,16,00,51,16.50
2019,06,16,00,52,16.50
2019,06,16,00,53,16.50
2019,06,16,00,54,16.40
2019,06,16,00,55,16.40
2019,06,16,00,56,16.40
2019,06,16,00,57,16.40
2019,06,16,00,58,16.30
2019,06,16,00,59,16.30
2019,06,16,01,00,16.30
2019,06,16,01,01,16.30
2019,06,16,01,02,16.30
2019,06,16,01,03,16.30
2019,06,16,01,04,16.20
2019,06,16,01,05,16.20
2019,06,16,01,06,16.20
2019,06,16,01,07,16.20
2019,06,16,01,08,16.20
2019,06,16,01,09,16.20
2019,06,16,01,10,16.10
2019,06,16,01,11,16.10
2019,06,16,01,12,16.10
2019,06,16,01,13,16.10
2019,06,16,01,14,16.10
2019,06,16,01,15,16.10
2019,06,16,01,16,16.10
2019,06,16,01,17,16.10
2019,06,16,01,18,16.10
2019,06,16,01,19,16.10
2019,06,16,01,20,16.00
2019,06,16,01,21,16.00
2019,06,16,01,22,16.00
2019,06,16,01,23,16.00
2019,06,16,01,24,16.00
2019,06,16,01,25,16.00
2019,06,16,01,26,16.00
2019,06,16,01,27,16.00
2019,06,16,01,28,16.00
2019,06,16,01,29,16.00
2019,06,16,01,30,16.00
2019,06,16,01,31,16.00
2019,06,16,01,32,16.00
2019,06,16,01,33,16.00
2019,06,16,01,34,16.00
2019,06,16,01,35,16.00
2019,06,16,01,36,16.00
2019,06,16,01,37,16.00
2019,06,16,01,38,16.00
2019,06,16,01,39,16.00
2019,06,16,01,40,16.00
2019,06,16,01,41,16.00
2019,06,16,01,42,16.00
2019,06,16,01,43,16.00
2019,06,16,01,44,16.00
2019,06,16,01,45,15.90
2019,06,16,01,46,15.90
2019,06,16,01,47,15.90
2019,06,16,01,48,15.90
2019,06,16,01,49,15.90
2019,06,16,01,50,15.90
2019,06,16,01,51,15.90
2019,06,16,01,52,15.90
2019,06,16,01,53,15.80
2019,06,16,01,54,15.80
2019,06,16,01,55,15.80
2019,06,16,01,56,15.80
2019,06,16,01,57,15.80
2019,06,16,01,58,15.80
2019,06,16,01,59,15.70
2019,06,16,02,00,15.70
2019,06,16,02,01,15.70
2019,06,16,02,02,15.70
2019,06,16,02,03,15.70
2019,06,16,02,04,15.60
2019,06,16,02,05,15.60
2019,06,16,02,06,15.60
2019,06,16,02,07,15.60
2019,06,16,02,08,15.60
2019,06,16,02,09,15.50
2019,06,16,02,10,15.50
2019,06,16,02,11,15.50
2019,06,16,02,12,15.40
2019,06,16,02,13,15.40
2019,06,16,02,14,15.40
2019,06,16,02,15,15.40
2019,06,16,02,16,15.40
2019,06,16,02,17,15.40
2019,06,16,02,18,15.30
2019,06,16,02,19,15.30
2019,06,16,02,20,15.30
2019,06,16,02,21,15.30
2019,06,16,02,22,15.30
2019,06,16,02,23,15.30
2019,06,16,02,24,15.20
2019,06,16,02,25,15.20
2019,06,16,02,26,15.20
2019,06,16,02,27,15.20
2019,06,16,02,28,15.20
2019,06,16,02,29,15.20
2019,06,16,02,30,15.10
2019,06,16,02,31,15.10
2019,06,16,02,32,15.10
2019,06,16,02,33,15.10
2019,06,16,02,34,15.10
2019,06,16,02,35,15.10
2019,06,16,02,36,15.10
2019,06,16,02,37,15.00
2019,06,16,02,38,15.00
2019,06,16,02,39,15.00
2019,06,16,02,40,14.90
2019,06,16,02,41,14.90
2019,06,16,02,42,14.90
2019,06,16,02,43,14.90
2019,06,16,02,44,14.90
2019,06,16,02,45,14.90
2019,06,16,02,46,14.90
2019,06,16,02,47,14.90
2019,06,16,02,48,14.90
2019,06,16,02,49,14.90
2019,06,16,02,50,14.90
2019,06,16,02,51,14.90
2019,06,16,02,52,14.90
2019,06,16,02,53,14.90
2019,06,16,02,54,14.90
2019,06,16,02,55,14.90
2019,06,16,02,56,14.90
2019,06,16,02,57,14.90
2019,06,16,02,58,14.90
2019,06,16,02,59,14.90
2019,06,16,03,00,14.90
2019,06,16,03,01,14.90
2019,06,16,03,02,14.90
2019,06,16,03,03,14.90
2019,06,16,03,04,14.90
2019,06,16,03,05,14.90
2019,06,16,03,06,15.00
2019,06,16,03,07,15.00
2019,06,16,03,08,15.00
2019,06,16,03,09,15.00
2019,06,16,03,10,15.00
2019,06,16,03,11,15.10
2019,06,16,03,12,15.10
2019,06,16,03,13,15.10
2019,06,16,03,14,15.10
2019,06,16,03,15,15.10
2019,06,16,03,16,15.10
2019,06,16,03,17,15.20
2019,06,16,03,18,15.20
2019,06,16,03,19,15.20
2019,06,16,03,20,15.20
2019,06,16,03,21,15.20
2019,06,16,03,22,15.20
2019,06,16,03,23,15.20
2019,06,16,03,24,15.20
2019,06,16,03,25,15.20
2019,06,16,03,26,15.10
2019,06,16,03,27,15.10
2019,06,16,03,28,15.10
2019,06,16,03,29,15.10
2019,06,16,03,30,15.10
2019,06,16,03,31,15.10
2019,06,16,03,32,15.10
2019,06,16,03,33,15.00
2019,06,16,03,34,15.00
2019,06,16,03,35,15.00
2019,06,16,03,36,15.00
2019,06,16,03,37,15.00
2019,06,16,03,38,14.90
2019,06,16,03,39,14.90
2019,06,16,03,40,14.90
2019,06,16,03,41,14.90
2019,06,16,03,42,14.80
2019,06,16,03,43,14.80
2019,06,16,03,44,14.80
2019,06,16,03,45,14.80
2019,06,16,03,46,14.80
2019,06,16,03,47,14.80
2019,06,16,03,48,14.80
2019,06,16,03,49,14.80
2019,06,16,03,50,14.80
2019,06,16,03,51,14.80
2019,06,16,03,52,14.80
2019,06,16,03,53,14.80
2019,06,16,03,54,14.80
2019,06,16,03,55,14.80
2019,06,16,03,56,14.80
2019,06,16,03,57,14.80
2019,06,16,03,58,14.80
2019,06,16,03,59,14.80
2019,06,16,04,00,14.80
2019,06,16,04,01,14.90
2019,06,16,04,02,14.90
2019,06,16,04,03,14.90
2019,06,16,04,04,14.90
2019,06,16,04,05,14.90
2019,06,16,04,06,14.90
2019,06,16,04,07,14.90
2019,06,16,04,08,14.90
2019,06,16,04,09,14.90
2019,06,16,04,10,14.90
2019,06,16,04,11,14.90
2019,06,16,04,12,14.90
2019,06,16,04,13,14.90
2019,06,16,04,14,14.90
2019,06,16,04,15,14.90
2019,06,16,04,16,14.80
2019,06,16,04,17,14.80
2019,06,16,04,18,14.80
2019,06,16,04,19,14.80
2019,06,16,04,20,14.80
2019,06,16,04,21,14.80
2019,06,16,04,22,14.80
2019,06,16,04,23,14.80
2019,06,16,04,24,14.80
2019,06,16,04,25,14.80
2019,06,16,04,26,14.80
2019,06,16,04,27,14.80
2019,06,16,04,28,14.80
2019,06,16,04,29,14.80
2019,06,16,04,30,14.80
2019,06,16,04,31,14.80
2019,06,16,04,32,14.80
2019,06,16,04,33,14.80
2019,06,16,04,34,14.80
2019,06,16,04,35,14.80
2019,06,16,04,36,14.80
2019,06,16,04,37,14.80
2019,06,16,04,38,14.70
2019,06,16,04,39,14.80
2019,06,16,04,40,14.70
2019,06,16,04,41,14.70
2019,06,16,04,42,14.70
2019,06,16,04,43,14.70
2019,06,16,04,44,14.70
2019,06,16,04,45,14.70
2019,06,16,04,46,14.70
2019,06,16,04,47,14.70
2019,06,16,04,48,14.70
2019,06,16,04,49,14.60
2019,06,16,04,50,14.60
2019,06,16,04,51,14.60
2019,06,16,04,52,14.60
2019,06,16,04,53,14.60
2019,06,16,04,54,14.60
2019,06,16,04,55,14.60
2019,06,16,04,56,14.60
2019,06,16,04,57,14.50
2019,06,16,04,58,14.50
2019,06,16,04,59,14.50
2019,06,16,05,00,14.50
2019,06,16,05,01,14.50
2019,06,16,05,02,14.50
2019,06,16,05,03,14.40
2019,06,16,05,04,14.40
2019,06,16,05,05,14.40
2019,06,16,05,06,14.40
2019,06,16,05,07,14.40
2019,06,16,05,08,14.40
2019,06,16,05,09,14.30
2019,06,16,05,10,14.30
2019,06,16,05,11,14.30
2019,06,16,05,12,14.30
2019,06,16,05,13,14.30
2019,06,16,05,14,14.30
2019,06,16,05,15,14.30
2019,06,16,05,16,14.30
2019,06,16,05,17,14.30
2019,06,16,05,18,14.30
2019,06,16,05,19,14.20
2019,06,16,05,20,14.20
2019,06,16,05,21,14.20
2019,06,16,05,22,14.20
2019,06,16,05,23,14.20
2019,06,16,05,24,14.20
2019,06,16,05,25,14.20
2019,06,16,05,26,14.20
2019,06,16,05,27,14.10
2019,06,16,05,28,14.10
2019,06,16,05,29,14.10
2019,06,16,05,30,14.10
2019,06,16,05,31,14.10
2019,06,16,05,32,14.00
2019,06,16,05,33,14.00
2019,06,16,05,34,14.00
2019,06,16,05,35,13.90
2019,06,16,05,36,13.90
2019,06,16,05,37,13.90
2019,06,16,05,38,13.80
2019,06,16,05,39,13.80
2019,06,16,05,40,13.80
2019,06,16,05,41,13.80
2019,06,16,05,42,13.80
2019,06,16,05,43,13.70
2019,06,16,05,44,13.70
2019,06,16,05,45,13.70
2019,06,16,05,46,13.70
2019,06,16,05,47,13.60
2019,06,16,05,48,13.60
2019,06,16,05,49,13.60
2019,06,16,05,50,13.50
2019,06,16,05,51,13.50
2019,06,16,05,52,13.50
2019,06,16,05,53,13.40
2019,06,16,05,54,13.40
2019,06,16,05,55,13.40
2019,06,16,05,56,13.40
2019,06,16,05,57,13.40
2019,06,16,05,58,13.40
2019,06,16,05,59,13.30
2019,06,16,06,00,13.30
2019,06,16,06,01,13.30
2019,06,16,06,02,13.30
2019,06,16,06,03,13.30
2019,06,16,06,04,13.30
2019,06,16,06,05,13.30
2019,06,16,06,06,13.30
2019,06,16,06,07,13.30
2019,06,16,06,08,13.20
2019,06,16,06,09,13.20
2019,06,16,06,10,13.20
2019,06,16,06,11,13.10
2019,06,16,06,12,13.10
2019,06,16,06,13,13.10
2019,06,16,06,14,13.10
2019,06,16,06,15,13.10
2019,06,16,06,16,13.00
2019,06,16,06,17,13.00
2019,06,16,06,18,13.00
2019,06,16,06,19,13.00
2019,06,16,06,20,13.00
2019,06,16,06,21,13.00
2019,06,16,06,22,13.00
2019,06,16,06,23,13.00
2019,06,16,06,24,12.90
2019,06,16,06,25,12.90
2019,06,16,06,26,12.90
2019,06,16,06,27,12.90
2019,06,16,06,28,12.90
2019,06,16,06,29,12.90
2019,06,16,06,30,12.90
2019,06,16,06,31,12.90
2019,06,16,06,32,13.00
2019,06,16,06,33,13.00
2019,06,16,06,34,13.10
2019,06,16,06,35,13.10
2019,06,16,06,36,13.10
2019,06,16,06,37,13.20
2019,06,16,06,38,13.30
2019,06,16,06,39,13.30
2019,06,16,06,40,13.40
2019,06,16,06,41,13.40
2019,06,16,06,42,13.50
2019,06,16,06,43,13.60
2019,06,16,06,44,13.70
2019,06,16,06,45,13.80
2019,06,16,06,46,13.80
2019,06,16,06,47,13.90
2019,06,16,06,48,14.00
2019,06,16,06,49,14.20
2019,06,16,06,50,14.20
2019,06,16,06,51,14.40
2019,06,16,06,52,14.50
2019,06,16,06,53,14.50
2019,06,16,06,54,14.60
2019,06,16,06,55,14.70
2019,06,16,06,56,14.80
2019,06,16,06,57,14.90
2019,06,16,06,58,15.00
2019,06,16,06,59,15.10
2019,06,16,07,00,15.10
2019,06,16,07,01,15.20
2019,06,16,07,02,15.30
2019,06,16,07,03,15.40
2019,06,16,07,04,15.40
2019,06,16,07,05,15.50
2019,06,16,07,06,15.60
2019,06,16,07,07,15.60
2019,06,16,07,08,15.70
2019,06,16,07,09,15.80
2019,06,16,07,10,15.90
2019,06,16,07,11,16.00
2019,06,16,07,12,16.10
2019,06,16,07,13,16.20
2019,06,16,07,14,16.20
2019,06,16,07,15,16.30
2019,06,16,07,16,16.30
2019,06,16,07,17,16.40
2019,06,16,07,18,16.50
2019,06,16,07,19,16.60
2019,06,16,07,20,16.70
2019,06,16,07,21,16.80
2019,06,16,07,22,16.80
2019,06,16,07,23,17.00
2019,06,16,07,24,17.00
2019,06,16,07,25,17.10
2019,06,16,07,26,17.20
2019,06,16,07,27,17.30
2019,06,16,07,28,17.30
2019,06,16,07,29,17.40
2019,06,16,07,30,17.50
2019,06,16,07,31,17.50
2019,06,16,07,32,17.60
2019,06,16,07,33,17.60
2019,06,16,07,34,17.70
2019,06,16,07,35,17.80
2019,06,16,07,36,17.90
2019,06,16,07,37,18.00
2019,06,16,07,38,18.00
2019,06,16,07,39,18.10
2019,06,16,07,40,18.20
2019,06,16,07,41,18.20
2019,06,16,07,42,18.30
2019,06,16,07,43,18.20
2019,06,16,07,44,18.20
2019,06,16,07,45,18.10
2019,06,16,07,46,18.10
2019,06,16,07,47,18.00
2019,06,16,07,48,18.00
2019,06,16,07,49,18.00
2019,06,16,07,50,18.00
2019,06,16,07,51,18.00
2019,06,16,07,52,18.00
2019,06,16,07,53,18.00
2019,06,16,07,54,17.90
2019,06,16,07,55,17.90
2019,06,16,07,56,17.90
2019,06,16,07,57,17.90
2019,06,16,07,58,17.90
2019,06,16,07,59,17.90
2019,06,16,08,00,17.90
2019,06,16,08,01,17.90
2019,06,16,08,02,17.90
2019,06,16,08,03,17.90
2019,06,16,08,04,17.90
2019,06,16,08,05,17.90
2019,06,16,08,06,17.90
2019,06,16,08,07,17.90
2019,06,16,08,08,18.00
2019,06,16,08,09,18.00
2019,06,16,08,10,18.10
2019,06,16,08,11,18.20
2019,06,16,08,12,18.30
2019,06,16,08,13,18.30
2019,06,16,08,14,18.40
2019,06,16,08,15,18.40
2019,06,16,08,16,18.50
2019,06,16,08,17,18.60
2019,06,16,08,18,18.70
2019,06,16,08,19,18.80
2019,06,16,08,20,18.80
2019,06,16,08,21,18.90
2019,06,16,08,22,18.90
2019,06,16,08,23,19.00
2019,06,16,08,24,19.10
2019,06,16,08,25,19.10
2019,06,16,08,26,19.20
2019,06,16,08,27,19.10
2019,06,16,08,28,19.10
2019,06,16,08,29,19.00
2019,06,16,08,30,19.00
2019,06,16,08,31,18.90
2019,06,16,08,32,18.80
2019,06,16,08,33,18.60
2019,06,16,08,34,18.50
2019,06,16,08,35,18.50
2019,06,16,08,36,18.40
2019,06,16,08,37,18.30
2019,06,16,08,38,18.20
2019,06,16,08,39,18.10
2019,06,16,08,40,18.00
2019,06,16,08,41,18.00
2019,06,16,08,42,17.90
2019,06,16,08,43,17.80
2019,06,16,08,44,17.80
2019,06,16,08,45,17.80
2019,06,16,08,46,17.80
2019,06,16,08,47,17.90
2019,06,16,08,48,17.90
2019,06,16,08,49,17.90
2019,06,16,08,50,18.00
2019,06,16,08,51,18.00
2019,06,16,08,52,18.10
2019,06,16,08,53,18.10
2019,06,16,08,54,18.20
2019,06,16,08,55,18.30
2019,06,16,08,56,18.30
2019,06,16,08,57,18.30
2019,06,16,08,58,18.30
2019,06,16,08,59,18.30
2019,06,16,09,00,18.30
2019,06,16,09,01,18.40
2019,06,16,09,02,18.40
2019,06,16,09,03,18.40
2019,06,16,09,04,18.40
2019,06,16,09,05,18.50
2019,06,16,09,06,18.60
2019,06,16,09,07,18.60
2019,06,16,09,08,18.70
2019,06,16,09,09,18.70
2019,06,16,09,10,18.70
2019,06,16,09,11,18.80
2019,06,16,09,12,18.90
2019,06,16,09,13,19.00
2019,06,16,09,14,19.00
2019,06,16,09,15,18.80
2019,06,16,09,16,18.60
2019,06,16,09,17,18.40
2019,06,16,09,18,18.20
2019,06,16,09,19,18.10
2019,06,16,09,20,18.00
2019,06,16,09,21,18.00
2019,06,16,09,22,18.00
2019,06,16,09,23,18.10
2019,06,16,09,24,18.20
2019,06,16,09,25,18.30
2019,06,16,09,26,18.40
2019,06,16,09,27,18.60
2019,06,16,09,28,18.70
2019,06,16,09,29,18.80
2019,06,16,09,30,18.90
2019,06,16,09,31,19.00
2019,06,16,09,32,19.10
2019,06,16,09,33,19.10
2019,06,16,09,34,19.10
2019,06,16,09,35,19.20
2019,06,16,09,36,19.20
2019,06,16,09,37,19.20
2019,06,16,09,38,19.10
2019,06,16,09,39,19.10
2019,06,16,09,40,19.00
2019,06,16,09,41,19.00
2019,06,16,09,42,18.90
2019,06,16,09,43,18.90
2019,06,16,09,44,19.00
2019,06,16,09,45,19.10
2019,06,16,09,46,19.10
2019,06,16,09,47,19.10
2019,06,16,09,48,19.00
2019,06,16,09,49,19.00
2019,06,16,09,50,18.90
2019,06,16,09,51,18.80
2019,06,16,09,52,18.80
2019,06,16,09,53,18.70
2019,06,16,09,54,18.70
2019,06,16,09,55,18.60
2019,06,16,09,56,18.60
2019,06,16,09,57,18.60
2019,06,16,09,58,18.70
2019,06,16,09,59,18.70
2019,06,16,10,00,18.70
2019,06,16,10,01,18.70
2019,06,16,10,02,18.70
2019,06,16,10,03,18.60
2019,06,16,10,04,18.60
2019,06,16,10,05,18.60
2019,06,16,10,06,18.60
2019,06,16,10,07,18.70
2019,06,16,10,08,18.70
2019,06,16,10,09,18.80
2019,06,16,10,10,18.80
2019,06,16,10,11,18.80
2019,06,16,10,12,18.80
2019,06,16,10,13,18.70
2019,06,16,10,14,18.80
2019,06,16,10,15,18.80
2019,06,16,10,16,18.80
2019,06,16,10,17,18.90
2019,06,16,10,18,19.00
2019,06,16,10,19,19.10
2019,06,16,10,20,19.20
2019,06,16,10,21,19.30
2019,06,16,10,22,19.30
2019,06,16,10,23,19.20
2019,06,16,10,24,19.20
2019,06,16,10,25,19.10
2019,06,16,10,26,19.10
2019,06,16,10,27,19.10
2019,06,16,10,28,19.00
2019,06,16,10,29,19.00
2019,06,16,10,30,19.00
2019,06,16,10,31,19.10
2019,06,16,10,32,19.10
2019,06,16,10,33,19.00
2019,06,16,10,34,19.00
2019,06,16,10,35,19.00
2019,06,16,10,36,19.00
2019,06,16,10,37,19.00
2019,06,16,10,38,19.00
2019,06,16,10,39,18.90
2019,06,16,10,40,18.90
2019,06,16,10,41,18.80
2019,06,16,10,42,18.90
2019,06,16,10,43,18.90
2019,06,16,10,44,18.90
2019,06,16,10,45,18.80
2019,06,16,10,46,18.90
2019,06,16,10,47,18.90
2019,06,16,10,48,19.00
2019,06,16,10,49,19.00
2019,06,16,10,50,19.00
2019,06,16,10,51,19.00
2019,06,16,10,52,19.10
2019,06,16,10,53,19.10
2019,06,16,10,54,19.20
2019,06,16,10,55,19.20
2019,06,16,10,56,19.30
2019,06,16,10,57,19.40
2019,06,16,10,58,19.40
2019,06,16,10,59,19.50
2019,06,16,11,00,19.60
2019,06,16,11,01,19.50
2019,06,16,11,02,19.40
2019,06,16,11,03,19.50
2019,06,16,11,04,19.50
2019,06,16,11,05,19.50
2019,06,16,11,06,19.60
2019,06,16,11,07,19.60
2019,06,16,11,08,19.60
2019,06,16,11,09,19.60
2019,06,16,11,10,19.60
2019,06,16,11,11,19.60
2019,06,16,11,12,19.60
2019,06,16,11,13,19.60
2019,06,16,11,14,19.50
2019,06,16,11,15,19.50
2019,06,16,11,16,19.50
2019,06,16,11,17,19.50
2019,06,16,11,18,19.50
2019,06,16,11,19,19.50
2019,06,16,11,20,19.50
2019,06,16,11,21,19.50
2019,06,16,11,22,19.60
2019,06,16,11,23,19.60
2019,06,16,11,24,19.60
2019,06,16,11,25,19.60
2019,06,16,11,26,19.50
2019,06,16,11,27,19.60
2019,06,16,11,28,19.60
2019,06,16,11,29,19.60
2019,06,16,11,30,19.60
2019,06,16,11,31,19.70
2019,06,16,11,32,19.70
2019,06,16,11,33,19.70
2019,06,16,11,34,19.80
2019,06,16,11,35,19.90
2019,06,16,11,36,19.90
2019,06,16,11,37,19.90
2019,06,16,11,38,19.90
2019,06,16,11,39,19.90
2019,06,16,11,40,20.00
2019,06,16,11,41,20.10
2019,06,16,11,42,20.20
2019,06,16,11,43,20.30
2019,06,16,11,44,20.40
2019,06,16,11,45,20.30
2019,06,16,11,46,20.30
2019,06,16,11,47,20.30
2019,06,16,11,48,20.20
2019,06,16,11,49,20.10
2019,06,16,11,50,20.10
2019,06,16,11,51,20.10
2019,06,16,11,52,20.10
2019,06,16,11,53,20.10
2019,06,16,11,54,20.10
2019,06,16,11,55,20.10
2019,06,16,11,56,20.10
2019,06,16,11,57,20.10
2019,06,16,11,58,20.20
2019,06,16,11,59,20.30
2019,06,16,12,00,20.40
2019,06,16,12,01,20.60
2019,06,16,12,02,20.70
2019,06,16,12,03,20.80
2019,06,16,12,04,20.90
2019,06,16,12,05,20.90
2019,06,16,12,06,20.90
2019,06,16,12,07,20.90
2019,06,16,12,08,20.90
2019,06,16,12,09,21.00
2019,06,16,12,10,21.00
2019,06,16,12,11,21.00
2019,06,16,12,12,21.00
2019,06,16,12,13,21.00
2019,06,16,12,14,20.90
2019,06,16,12,15,20.80
2019,06,16,12,16,20.70
2019,06,16,12,17,20.70
2019,06,16,12,18,20.60
2019,06,16,12,19,20.70
2019,06,16,12,20,20.70
2019,06,16,12,21,20.80
2019,06,16,12,22,20.90
2019,06,16,12,23,20.90
2019,06,16,12,24,20.90
2019,06,16,12,25,21.00
2019,06,16,12,26,21.10
2019,06,16,12,27,21.10
2019,06,16,12,28,21.20
2019,06,16,12,29,21.20
2019,06,16,12,30,21.30
2019,06,16,12,31,21.40
2019,06,16,12,32,21.40
2019,06,16,12,33,21.50
2019,06,16,12,34,21.40
2019,06,16,12,35,21.40
2019,06,16,12,36,21.30
2019,06,16,12,37,21.30
2019,06,16,12,38,21.30
2019,06,16,12,39,21.30
2019,06,16,12,40,21.30
2019,06,16,12,41,21.30
2019,06,16,12,42,21.30
2019,06,16,12,43,21.30
2019,06,16,12,44,21.40
2019,06,16,12,45,21.40
2019,06,16,12,46,21.50
2019,06,16,12,47,21.60
2019,06,16,12,48,21.70
2019,06,16,12,49,21.90
2019,06,16,12,50,22.00
2019,06,16,12,51,22.10
2019,06,16,12,52,22.20
2019,06,16,12,53,22.20
2019,06,16,12,54,22.10
2019,06,16,12,55,22.10
2019,06,16,12,56,22.10
2019,06,16,12,57,22.10
2019,06,16,12,58,22.10
2019,06,16,12,59,22.10
2019,06,16,13,00,22.10
2019,06,16,13,01,22.20
2019,06,16,13,02,22.20
2019,06,16,13,03,22.30
2019,06,16,13,04,22.40
2019,06,16,13,05,22.40
2019,06,16,13,06,22.40
2019,06,16,13,07,22.40
2019,06,16,13,08,22.50
2019,06,16,13,09,22.60
2019,06,16,13,10,22.60
2019,06,16,13,11,22.70
2019,06,16,13,12,22.70
2019,06,16,13,13,22.80
2019,06,16,13,14,22.80
2019,06,16,13,15,22.80
2019,06,16,13,16,22.80
2019,06,16,13,17,22.80
2019,06,16,13,18,22.80
2019,06,16,13,19,22.90
2019,06,16,13,20,23.00
2019,06,16,13,21,23.10
2019,06,16,13,22,23.20
2019,06,16,13,23,23.30
2019,06,16,13,24,23.40
2019,06,16,13,25,23.50
2019,06,16,13,26,23.60
2019,06,16,13,27,23.60
2019,06,16,13,28,23.50
2019,06,16,13,29,23.40
2019,06,16,13,30,23.30
2019,06,16,13,31,23.20
2019,06,16,13,32,23.10
2019,06,16,13,33,23.00
2019,06,16,13,34,22.90
2019,06,16,13,35,22.90
2019,06,16,13,36,22.90
2019,06,16,13,37,22.90
2019,06,16,13,38,22.90
2019,06,16,13,39,22.80
2019,06,16,13,40,22.80
2019,06,16,13,41,22.80
2019,06,16,13,42,22.80
2019,06,16,13,43,22.80
2019,06,16,13,44,22.80
2019,06,16,13,45,22.90
2019,06,16,13,46,22.90
2019,06,16,13,47,22.90
2019,06,16,13,48,23.00
2019,06,16,13,49,23.20
2019,06,16,13,50,23.40
2019,06,16,13,51,23.50
2019,06,16,13,52,23.50
2019,06,16,13,53,23.50
2019,06,16,13,54,23.40
2019,06,16,13,55,23.40
2019,06,16,13,56,23.30
2019,06,16,13,57,23.30
2019,06,16,13,58,23.20
2019,06,16,13,59,23.20
2019,06,16,14,00,23.10
2019,06,16,14,01,23.10
2019,06,16,14,02,23.00
2019,06,16,14,03,22.90
2019,06,16,14,04,22.90
2019,06,16,14,05,22.90
2019,06,16,14,06,22.90
2019,06,16,14,07,23.00
2019,06,16,14,08,23.10
2019,06,16,14,09,23.10
2019,06,16,14,10,23.10
2019,06,16,14,11,23.10
2019,06,16,14,12,23.20
2019,06,16,14,13,23.20
2019,06,16,14,14,23.20
2019,06,16,14,15,23.20
2019,06,16,14,16,23.20
2019,06,16,14,17,23.20
2019,06,16,14,18,23.20
2019,06,16,14,19,23.20
2019,06,16,14,20,23.20
2019,06,16,14,21,23.30
2019,06,16,14,22,23.30
2019,06,16,14,23,23.50
2019,06,16,14,24,23.60
2019,06,16,14,25,23.70
2019,06,16,14,26,23.90
2019,06,16,14,27,23.90
2019,06,16,14,28,24.00
2019,06,16,14,29,24.10
2019,06,16,14,30,24.20
2019,06,16,14,31,24.20
2019,06,16,14,32,24.20
2019,06,16,14,33,24.20
2019,06,16,14,34,24.20
2019,06,16,14,35,24.20
2019,06,16,14,36,24.20
2019,06,16,14,37,24.20
2019,06,16,14,38,24.10
2019,06,16,14,39,24.10
2019,06,16,14,40,24.00
2019,06,16,14,41,23.90
2019,06,16,14,42,23.90
2019,06,16,14,43,23.80
2019,06,16,14,44,23.80
2019,06,16,14,45,23.80
2019,06,16,14,46,23.80
2019,06,16,14,47,23.80
2019,06,16,14,48,23.70
2019,06,16,14,49,23.70
2019,06,16,14,50,23.70
2019,06,16,14,51,23.70
2019,06,16,14,52,23.70
2019,06,16,14,53,23.70
2019,06,16,14,54,23.70
2019,06,16,14,55,23.70
2019,06,16,14,56,23.70
2019,06,16,14,57,23.70
2019,06,16,14,58,23.70
2019,06,16,14,59,23.70
2019,06,16,15,00,23.60
2019,06,16,15,01,23.60
2019,06,16,15,02,23.60
2019,06,16,15,03,23.60
2019,06,16,15,04,23.60
2019,06,16,15,05,23.60
2019,06,16,15,06,23.70
2019,06,16,15,07,23.70
2019,06,16,15,08,23.80
2019,06,16,15,09,23.80
2019,06,16,15,10,23.90
2019,06,16,15,11,24.00
2019,06,16,15,12,24.20
2019,06,16,15,13,24.30
2019,06,16,15,14,24.50
2019,06,16,15,15,24.50
2019,06,16,15,16,24.60
2019,06,16,15,17,24.60
2019,06,16,15,18,24.70
2019,06,16,15,19,24.70
2019,06,16,15,20,24.70
2019,06,16,15,21,24.80
2019,06,16,15,22,24.80
2019,06,16,15,23,24.80
2019,06,16,15,24,24.80
2019,06,16,15,25,24.80
2019,06,16,15,26,24.80
2019,06,16,15,27,24.80
2019,06,16,15,28,24.80
2019,06,16,15,29,24.80
2019,06,16,15,30,24.80
2019,06,16,15,31,24.80
2019,06,16,15,32,24.80
2019,06,16,15,33,24.80
2019,06,16,15,34,24.80
2019,06,16,15,35,24.70
2019,06,16,15,36,24.70
2019,06,16,15,37,24.60
2019,06,16,15,38,24.60
2019,06,16,15,39,24.60
2019,06,16,15,40,24.70
2019,06,16,15,41,24.60
2019,06,16,15,42,24.60
2019,06,16,15,43,24.70
2019,06,16,15,44,24.70
2019,06,16,15,45,24.80
2019,06,16,15,46,24.90
2019,06,16,15,47,25.10
2019,06,16,15,48,25.10
2019,06,16,15,49,25.20
2019,06,16,15,50,25.30
2019,06,16,15,51,25.30
2019,06,16,15,52,25.40
2019,06,16,15,53,25.40
2019,06,16,15,54,25.30
2019,06,16,15,55,25.40
2019,06,16,15,56,25.40
2019,06,16,15,57,25.30
2019,06,16,15,58,25.30
2019,06,16,15,59,25.40
2019,06,16,16,00,25.40
2019,06,16,16,01,25.50
2019,06,16,16,02,25.50
2019,06,16,16,03,25.50
2019,06,16,16,04,25.50
2019,06,16,16,05,25.40
2019,06,16,16,06,25.30
2019,06,16,16,07,25.20
2019,06,16,16,08,25.00
2019,06,16,16,09,24.90
2019,06,16,16,10,24.90
2019,06,16,16,11,24.80
2019,06,16,16,12,24.80
2019,06,16,16,13,24.80
2019,06,16,16,14,24.70
2019,06,16,16,15,24.70
2019,06,16,16,16,24.70
2019,06,16,16,17,24.70
2019,06,16,16,18,24.70
2019,06,16,16,19,24.70
2019,06,16,16,20,24.80
2019,06,16,16,21,24.80
2019,06,16,16,22,24.80
2019,06,16,16,23,24.80
2019,06,16,16,24,24.80
2019,06,16,16,25,24.80
2019,06,16,16,26,24.80
2019,06,16,16,27,24.80
2019,06,16,16,28,24.80
2019,06,16,16,29,24.80
2019,06,16,16,30,24.80
2019,06,16,16,31,24.70
2019,06,16,16,32,24.60
2019,06,16,16,33,24.50
2019,06,16,16,34,24.50
2019,06,16,16,35,24.50
2019,06,16,16,36,24.50
2019,06,16,16,37,24.60
2019,06,16,16,38,24.60
2019,06,16,16,39,24.60
2019,06,16,16,40,24.60
2019,06,16,16,41,24.60
2019,06,16,16,42,24.60
2019,06,16,16,43,24.60
2019,06,16,16,44,24.60
2019,06,16,16,45,24.70
2019,06,16,16,46,24.70
2019,06,16,16,47,24.70
2019,06,16,16,48,24.70
2019,06,16,16,49,24.80
2019,06,16,16,50,24.80
2019,06,16,16,51,24.80
2019,06,16,16,52,24.80
2019,06,16,16,53,24.80
2019,06,16,16,54,24.90
2019,06,16,16,55,24.90
2019,06,16,16,56,25.00
2019,06,16,16,57,25.00
2019,06,16,16,58,25.10
2019,06,16,16,59,25.10
2019,06,16,17,00,25.10
2019,06,16,17,01,25.10
2019,06,16,17,02,25.10
2019,06,16,17,03,25.20
2019,06,16,17,04,25.30
2019,06,16,17,05,25.30
2019,06,16,17,06,25.40
2019,06,16,17,07,25.40
2019,06,16,17,08,25.40
2019,06,16,17,09,25.40
2019,06,16,17,10,25.30
2019,06,16,17,11,25.30
2019,06,16,17,12,25.30
2019,06,16,17,13,25.30
2019,06,16,17,14,25.30
2019,06,16,17,15,25.30
2019,06,16,17,16,25.30
2019,06,16,17,17,25.30
2019,06,16,17,18,25.30
2019,06,16,17,19,25.20